Dewpoint
73 72 71 67 57 49 48 49 48 49 51 53 53 54 53 57 55 54 63 64 65 66 69 71 73 72 72 72 71 71 71 71 71 71 71 71 70 71 71 71 71 72 72 71 71 71 71 71 71
71 70 68 60 51 46 49 50 47 50 52 53 55 57 56 58 61 62 64 65 65 65 67 70 73 72 71 72 72 72 71 71 71 71 71 71 71 71 71 71 71 72 72 72 71 71 71 71 71
70 68 60 53 48 47 48 52 49 52 54 53 56 58 58 60 62 62 64 64 64 64 66 71 73 72 71 72 72 72 71 72 72 72 71 72 72 72 72 72 72 72 72 72 72 71 71 71 71
67 64 61 47 47 53 52 52 50 51 55 54 55 56 60 64 62 63 64 63 63 63 64 72 72 71 71 71 72 73 72 70 72 72 72 72 72 72 72 72 72 72 71 72 71 71 71 70 71
65 59 49 44 48 53 54 54 55 54 54 55 55 56 59 63 64 64 63 62 61 61 64 70 72 71 71 72 73 72 72 69 71 73 72 72 72 72 71 72 72 72 72 72 71 71 71 71 71
56 55 45 44 45 51 54 55 53 53 55 56 55 56 61 63 64 63 62 61 60 60 63 67 72 71 71 73 73 72 71 71 70 71 72 72 73 72 72 71 70 70 70 71 72 72 72 72 71
54 49 47 48 45 49 53 56 55 53 53 52 54 54 62 63 63 63 62 61 60 60 61 64 67 71 71 73 72 73 73 72 73 71 71 70 71 71 71 71 72 72 71 71 71 71 72 71 71
54 49 46 48 46 49 55 56 57 53 53 55 55 55 58 64 64 62 61 61 62 60 60 61 64 68 65 70 72 72 72 72 72 72 72 71 71 71 71 71 71 71 70 70 71 71 71 71 72
54 47 44 47 47 50 54 54 57 57 54 56 59 57 58 65 63 62 60 60 61 60 59 61 63 66 67 66 69 72 73 72 73 71 72 72 72 70 71 70 72 71 71 70 70 70 70 72 71
49 46 47 50 50 50 53 53 55 54 54 56 58 58 62 64 62 60 59 58 59 60 59 61 64 64 69 66 69 70 69 71 71 71 71 72 69 69 72 71 70 69 69 70 70 71 71 71 67
49 45 48 50 53 52 52 54 56 54 53 53 57 60 62 62 61 59 58 57 57 58 60 61 64 66 66 65 66 66 67 68 70 71 72 70 72 72 69 68 67 67 69 66 67 67 66 62 65
46 48 48 50 51 53 53 54 54 54 54 55 58 59 59 60 59 58 56 55 55 57 59 61 62 66 67 66 66 70 72 68 66 71 70 73 71 69 67 63 61 62 60 61 64 63 63 64 65
47 48 49 50 49 51 53 53 53 54 56 57 57 57 57 57 57 55 54 53 55 57 59 59 61 67 68 69 68 69 68 68 64 66 66 71 66 65 64 63 61 61 62 61 61 62 63 65 65
49 49 48 49 48 51 51 54 54 56 57 57 57 57 56 54 53 53 53 53 56 57 58 60 61 65 69 69 70 70 67 66 71 70 70 70 66 64 64 63 63 62 63 63 63 63 65 68 63
48 46 47 47 48 47 52 52 51 56 56 55 57 57 55 55 51 52 52 52 55 57 58 61 62 64 68 69 70 70 69 67 66 68 72 72 70 66 68 68 68 64 64 66 66 65 64 64 68
43 43 40 45 46 47 51 42 53 57 55 53 55 56 56 55 54 55 56 55 56 58 61 64 64 64 65 67 69 68 67 67 66 65 71 69 70 70 70 69 70 67 65 66 66 67 65 63 64
38 35 38 42 47 45 47 43 51 56 55 53 52 55 56 56 57 58 58 59 58 61 64 66 67 66 66 68 68 68 67 68 67 67 70 70 70 70 70 71 71 70 66 68 67 66 68 67 66
33 34 37 39 44 46 44 43 49 54 54 53 53 51 54 55 56 58 59 59 60 61 64 66 67 68 68 69 69 67 66 67 67 68 69 72 71 70 70 71 70 70 68 68 69 67 68 68 66
35 36 36 40 44 44 43 43 44 52 53 52 53 52 52 52 54 56 58 59 60 61 63 65 67 68 69 69 68 66 66 67 69 70 72 72 72 71 71 71 70 69 68 67 69 69 69 69 69
34 35 36 40 44 44 43 44 45 48 52 52 53 53 52 52 53 54 55 56 58 60 62 65 67 68 70 69 69 68 68 67 68 69 71 72 72 72 72 71 69 69 69 69 69 69 69 69 68
32 34 35 37 42 45 44 41 44 47 49 52 53 53 53 53 52 53 55 55 56 57 60 63 66 68 69 69 69 69 70 69 69 70 69 70 72 71 72 71 71 71 71 69 70 69 70 67 68
30 36 37 38 39 35 42 31 40 44 48 50 51 52 52 53 54 54 54 55 55 56 58 60 64 67 68 69 67 68 65 65 65 67 68 69 71 71 71 72 72 72 72 71 71 71 70 70 68
32 39 38 38 37 35 36 34 36 43 43 46 48 49 50 52 53 54 54 54 55 56 57 59 63 67 67 68 67 68 67 65 66 65 66 69 71 71 70 71 71 72 71 71 71 70 70 70 69
37 38 37 37 34 30 33 33 28 32 37 40 43 46 48 50 52 53 55 56 56 57 58 59 65 68 68 69 69 69 67 66 64 65 64 65 68 70 68 69 71 72 72 71 71 70 70 70 69
33 31 30 31 30 28 33 33 29 33 38 41 43 47 49 50 51 53 55 56 57 58 59 60 66 67 68 68 69 68 67 67 67 66 63 65 67 67 68 69 69 69 70 71 70 69 70 70 68
28 29 26 30 28 28 35 29 29 35 42 45 46 50 52 52 50 52 54 56 59 59 61 62 66 67 68 68 68 68 68 67 65 65 65 64 66 66 69 70 71 71 71 70 69 71 70 70 69
27 29 28 29 28 28 27 29 30 33 38 41 45 50 52 54 55 57 58 59 60 60 61 63 65 66 68 68 69 69 69 67 68 68 66 64 68 67 70 70 71 71 71 71 70 69 69 68 67
29 30 28 29 25 25 24 27 27 30 32 41 43 47 54 55 56 57 59 60 61 61 61 63 66 67 68 68 69 69 68 68 70 68 68 70 70 70 69 69 69 70 70 69 69 68 68 67 66
29 28 26 24 23 20 19 21 28 28 34 40 42 50 54 54 56 57 58 60 62 64 64 65 67 69 69 69 69 69 70 70 69 67 69 70 69 69 68 68 67 67 67 68 67 67 66 66 66
25 26 26 27 24 24 22 19 21 29 39 43 44 51 54 56 57 58 62 64 66 67 68 69 71 71 71 70 70 70 70 69 68 69 69 69 68 68 68 67 66 66 66 66 66 65 66 65 65
Wind_Speed
19 15 7 6 5 2 10 6 12 12 6 4 10 1 6 9 8 5 18 14 21 22 21 18 16 17 16 15 15 13 12 11 11 11 11 9 8 7 6 7 7 6 9 10 10 10 14 13 13
13 10 5 3 6 10 7 8 11 8 9 9 7 2 0 6 9 13 18 19 21 22 21 20 17 16 16 14 14 13 11 11 10 9 9 9 7 6 5 7 7 7 7 9 10 10 12 13 13
10 6 4 3 6 8 7 6 8 7 7 11 4 3 3 4 7 20 19 22 20 21 20 21 17 16 15 13 13 11 10 9 9 8 8 7 6 7 6 8 7 7 8 9 9 9 11 13 12
5 5 4 5 9 8 11 9 8 6 5 2 1 6 8 5 16 11 23 21 20 20 20 21 17 16 14 13 12 10 11 9 8 7 7 4 5 7 8 7 7 7 7 9 9 8 8 9 10
6 4 1 8 9 8 7 5 3 1 4 4 4 5 6 7 6 21 23 20 20 19 20 20 16 15 14 12 12 11 9 9 7 6 7 6 5 6 7 6 6 7 6 7 7 6 7 7 7
6 5 0 6 9 6 5 6 4 1 4 5 4 7 6 7 17 25 21 20 18 18 19 19 16 15 14 12 12 11 9 9 8 6 5 5 4 6 5 7 6 5 5 6 5 4 5 6 6
8 4 7 4 6 8 4 7 3 4 4 3 8 5 7 11 20 21 19 18 16 16 16 17 17 14 13 10 11 8 10 8 7 6 6 4 4 3 2 3 3 2 3 4 4 3 3 5 6
5 5 3 2 2 9 6 5 1 3 7 10 4 3 10 16 21 20 17 17 16 15 14 15 15 15 13 12 9 8 8 8 6 6 5 4 3 3 3 3 4 2 1 2 3 4 6 6 5
2 6 8 3 3 10 8 7 1 2 9 3 3 4 18 24 24 21 19 17 16 14 14 13 12 13 11 8 11 9 9 8 8 8 6 8 2 2 4 4 2 3 3 5 6 6 6 6 9
6 6 8 3 2 2 6 5 8 4 6 4 7 12 26 27 25 24 22 20 19 17 16 14 12 11 13 9 8 9 9 9 7 2 4 1 3 4 3 4 4 5 4 8 8 8 10 10 12
1 5 3 4 3 2 3 5 6 7 6 3 9 19 26 26 25 23 21 20 20 18 15 14 13 10 11 9 10 9 9 8 7 7 5 7 5 4 10 5 6 5 8 10 9 12 13 11 9
3 1 2 3 3 3 5 5 3 7 2 3 14 22 25 25 24 23 21 20 19 18 16 15 14 12 11 9 9 0 5 5 9 7 9 7 5 6 8 7 7 7 9 7 10 11 10 9 11
3 0 3 2 2 1 4 4 2 5 1 10 18 22 21 22 22 20 19 17 16 17 17 17 15 14 12 12 8 9 10 10 9 8 9 9 9 9 9 9 10 9 9 9 9 11 12 11 12
1 3 1 4 2 2 5 4 7 5 8 14 19 20 19 20 21 18 17 18 17 15 16 16 16 16 15 13 10 9 11 10 6 4 2 8 10 10 11 11 11 10 9 9 9 10 7 14 14
1 3 3 5 4 1 4 7 5 10 11 13 17 19 18 17 20 21 20 19 17 17 15 16 15 16 15 14 12 11 12 10 10 10 11 11 13 13 13 11 11 12 9 9 11 11 12 12 13
4 5 4 4 6 2 6 7 7 13 12 12 16 17 18 18 20 19 17 17 16 15 15 14 13 14 16 14 12 12 11 10 11 10 9 11 12 13 12 13 13 15 11 10 11 11 11 11 15
3 9 7 3 6 2 8 4 9 14 13 11 14 17 18 19 18 18 17 17 16 16 14 14 14 14 12 12 12 12 11 10 10 11 9 12 10 9 13 13 14 12 14 11 14 11 13 13 12
11 8 3 4 3 10 10 9 7 15 14 12 12 14 18 20 20 19 19 18 17 14 15 15 15 14 13 12 12 12 11 10 9 9 8 7 8 12 15 14 13 12 15 13 14 14 12 15 15
8 6 4 2 1 6 10 10 7 14 16 14 14 14 15 17 20 19 20 19 17 16 16 16 16 14 15 14 12 10 10 9 7 8 7 11 12 15 16 11 14 15 14 15 13 14 14 15 15
6 4 4 3 1 7 8 13 8 14 18 17 16 15 14 15 16 19 20 20 19 17 16 15 16 16 16 13 10 7 6 7 8 9 9 14 14 14 13 14 13 12 11 13 13 13 12 11 10
10 8 4 7 4 10 10 14 6 12 16 17 17 17 16 15 16 18 19 19 18 17 17 17 16 15 14 14 12 10 9 11 10 7 7 7 11 10 12 13 12 12 12 14 11 11 11 11 7
17 6 5 6 8 7 4 7 6 8 12 18 19 20 20 19 18 16 18 18 18 17 16 16 14 14 16 17 16 17 16 14 11 7 3 4 6 7 7 8 10 11 11 13 10 10 11 9 13
10 4 3 7 11 9 7 8 7 4 8 13 16 18 18 17 19 19 19 17 17 14 15 12 13 14 14 18 18 17 17 6 6 4 3 3 2 6 5 2 5 9 12 12 12 12 12 12 13
2 7 7 8 10 12 7 6 2 4 3 1 4 7 14 18 16 16 16 15 14 14 13 11 13 14 17 19 21 21 16 9 6 6 5 6 3 3 6 2 4 7 11 12 10 12 11 13 10
11 14 11 7 8 3 6 9 5 6 2 3 2 1 5 11 14 15 16 15 14 15 13 14 17 18 19 20 20 19 15 7 5 8 2 3 3 3 3 5 7 7 8 10 10 10 9 10 9
18 18 14 6 5 7 3 4 4 5 0 1 6 6 4 6 9 14 14 14 12 15 17 18 19 19 21 21 18 14 9 3 1 2 1 1 3 5 8 9 9 6 6 7 7 4 6 4 6
13 15 14 11 8 11 5 3 11 5 3 7 8 9 6 7 9 10 10 11 13 16 16 17 19 19 18 16 15 10 7 0 0 3 2 2 2 2 4 6 7 6 4 2 1 2 3 4 4
14 5 11 16 10 11 3 5 10 7 11 2 9 10 12 12 13 13 12 13 12 15 16 16 16 15 16 13 10 7 5 4 2 5 4 3 3 1 3 4 4 5 4 5 3 3 3 4 6
14 17 14 9 5 11 13 3 6 7 5 2 7 11 15 16 15 14 14 14 14 12 13 14 14 14 12 9 8 5 3 4 5 5 4 5 5 5 5 5 5 5 5 4 4 4 3 4 4
18 25 22 17 11 10 10 16 13 5 4 1 8 12 15 15 15 15 16 15 13 12 13 13 13 12 10 8 6 5 7 7 8 8 7 5 6 6 5 4 4 5 6 5 4 5 6 6 6
Wind_Direction
154 168 159 222 236 180 59 57 107 111 112 82 130 19 21 24 7 61 136 133 139 139 136 148 143 135 132 126 128 127 125 125 123 129 139 140 142 136 135 129 117 96 101 120 126 122 120 120 122
157 160 208 283 297 82 78 115 83 33 108 143 130 131 117 74 61 129 132 141 147 140 148 144 143 140 136 131 131 130 128 127 128 134 138 140 142 142 155 156 140 117 112 119 125 125 124 127 120
162 203 278 308 15 57 75 129 58 90 124 156 109 59 36 54 110 143 134 146 147 148 146 130 146 144 140 139 133 131 132 130 135 139 140 137 147 137 138 145 143 133 119 120 126 129 127 125 126
197 201 221 22 50 58 105 120 86 87 106 166 153 96 95 73 141 137 145 151 145 150 145 138 149 148 148 147 138 136 134 139 140 144 133 127 152 149 117 123 129 123 122 125 121 126 126 125 132
259 243 60 75 77 107 145 126 321 27 118 164 220 97 88 139 144 143 148 155 150 151 137 152 156 154 155 156 147 144 140 139 144 142 132 131 128 113 114 107 120 120 118 117 118 128 129 133 143
260 279 3 44 76 90 140 201 73 143 104 119 146 114 92 131 156 151 154 157 155 149 146 146 157 160 162 165 155 153 153 142 149 150 138 114 95 115 130 132 124 130 128 123 111 135 145 148 143
293 315 33 78 71 94 87 167 250 75 106 90 131 85 112 148 151 154 158 156 158 153 155 158 163 166 169 171 163 162 160 162 173 160 159 153 141 125 125 86 94 103 130 152 155 172 184 177 167
299 290 67 76 50 88 131 146 91 69 67 118 168 130 158 161 159 157 160 156 165 163 161 167 165 162 173 170 174 169 170 162 157 161 145 139 163 164 171 183 156 194 236 262 241 217 206 218 209
259 272 25 73 270 105 153 127 165 353 146 83 29 129 132 153 161 163 162 166 169 174 171 171 173 161 168 177 165 179 183 178 184 185 187 172 248 168 223 96 120 281 262 256 257 246 241 236 230
272 333 24 10 340 102 170 157 160 162 165 123 90 113 138 157 165 170 171 174 175 180 181 170 180 179 171 176 174 186 188 195 192 219 117 315 258 214 257 315 236 228 244 277 256 249 253 240 213
27 10 66 51 356 253 202 165 189 157 229 160 159 144 153 161 171 176 178 181 179 181 181 180 189 198 183 192 187 196 196 192 217 207 169 205 227 245 244 221 255 251 245 271 243 226 229 251 259
254 100 16 52 5 193 193 150 190 202 55 0 148 158 159 169 175 181 183 183 182 182 188 188 190 196 202 204 200 28 342 235 205 192 212 209 223 237 245 251 271 263 278 275 247 265 259 265 260
266 177 225 166 336 206 146 177 230 206 291 139 147 160 169 175 178 182 185 181 188 187 190 199 197 194 209 211 196 212 220 225 237 208 212 219 235 251 254 250 262 280 285 274 267 267 266 249 251
342 285 261 231 270 180 187 170 218 133 142 146 159 167 173 179 178 179 189 189 193 195 196 198 199 199 209 217 207 226 233 229 316 309 277 257 249 252 258 253 259 266 269 267 269 258 255 267 253
149 255 198 195 213 135 177 196 203 140 155 158 168 173 172 177 180 186 192 198 198 199 198 202 206 204 206 214 220 218 224 242 230 224 231 235 256 253 263 279 272 270 267 266 261 256 243 241 271
267 222 330 133 231 146 224 95 156 162 169 168 173 177 178 182 185 189 195 203 199 209 201 206 206 213 204 213 214 227 226 234 238 242 237 244 247 265 268 264 260 272 255 266 261 268 277 254 245
196 1 12 129 208 236 224 341 153 174 184 177 177 180 188 187 195 192 199 205 211 203 209 212 213 217 216 213 226 227 235 233 247 249 230 240 239 286 291 273 266 265 261 264 265 251 250 263 262
347 333 38 10 176 231 244 262 169 189 197 189 182 180 190 195 198 201 206 209 209 216 209 217 220 214 217 218 220 232 236 243 250 261 265 257 246 234 266 271 273 262 258 247 253 257 256 256 259
317 323 339 64 197 258 256 268 236 195 207 203 195 193 187 198 197 201 204 211 215 213 219 217 218 221 213 211 222 228 228 235 233 256 236 244 237 236 242 249 259 252 262 266 267 265 269 273 278
308 311 52 130 251 254 281 277 225 209 208 212 204 205 201 187 188 195 205 209 211 213 219 219 221 216 214 211 214 231 237 227 238 230 221 218 223 240 247 257 265 261 253 261 265 272 278 280 283
286 310 344 346 295 247 285 256 202 211 216 210 219 212 211 206 196 195 202 210 211 217 219 221 222 220 208 212 197 203 214 223 219 224 251 218 211 225 241 255 259 271 267 262 266 257 263 277 296
291 16 277 286 294 339 317 321 167 199 209 217 219 218 216 209 211 215 208 210 214 220 220 218 219 212 199 199 201 212 219 222 211 200 180 261 247 199 235 248 253 260 265 277 268 264 255 247 255
319 330 308 299 281 282 150 270 108 167 220 231 223 225 216 217 208 212 218 215 212 216 220 209 204 204 199 196 210 210 222 223 184 194 190 195 209 162 150 275 282 278 271 266 269 264 241 240 253
310 245 241 249 256 250 63 317 180 64 4 291 142 211 215 205 211 215 216 223 220 210 215 194 192 186 190 196 207 211 206 195 166 202 216 217 227 279 84 16 319 280 281 277 272 268 260 244 243
241 257 265 250 224 55 34 291 358 6 331 266 245 82 184 190 201 203 204 207 209 200 189 184 186 188 191 196 207 212 214 188 199 200 220 190 250 253 305 324 307 297 305 295 287 279 272 262 250
222 255 271 249 309 343 155 261 41 7 334 109 151 142 150 178 181 194 191 192 185 179 183 183 185 189 192 196 203 210 212 228 301 304 197 179 260 335 347 335 324 303 278 268 268 286 274 295 268
206 236 264 295 243 258 295 293 273 95 101 180 175 164 158 144 144 156 163 156 160 168 178 180 184 189 192 192 203 204 199 179 3 118 104 138 151 24 24 16 16 25 25 5 351 19 357 335 319
259 358 220 220 267 271 292 265 253 324 5 135 171 172 139 138 141 146 143 146 148 148 162 169 176 180 190 194 196 193 186 195 160 129 60 4 338 39 36 41 53 59 43 49 36 58 36 331 323
197 231 244 310 301 299 285 281 78 308 5 355 160 151 148 144 144 143 142 141 136 136 145 149 162 165 172 181 193 180 180 175 133 96 74 78 76 69 65 52 49 48 58 61 62 69 29 3 9
246 219 230 225 227 237 297 284 292 315 326 224 165 150 147 145 147 146 139 136 137 139 137 136 139 145 160 174 176 173 153 125 119 117 105 99 105 92 85 70 70 68 58 60 66 59 59 51 39